Location: St. Louis
(38.6270°N, 90.1994°W)
Time: 02:25:54
(UTC-06:00)

Transit 2A - Pass Details

Date: 02 December 2021
Orbit: 591 x 966 km, 66.7° (Epoch: 24 January)

Event Time Altitude Azimuth Distance (km) Brightness Sun altitude
Rises 10:57:05 0° 315° (NW) 3,654 9.0 28.0°
Reaches altitude 10° 11:00:31 10° 298° (WNW) 2,682 8.5 28.2°
Maximum altitude 11:04:33 18° 257° (WSW) 2,111 8.4 28.4°
Drops below altitude 10° 11:08:27 10° 217° (SW) 2,568 9.4 28.5°
Sets 11:11:40 0° 199° (SSW) 3,441 10.3 28.6°
